Date String (YYYY-MM-DD hh:mm:ss) UTC,Instrument flags,absolute air pressure of the measurement (hPa),sample flow rate (lpm),inlet stack bypass flow (lpm),air temperature of the measurement (°C),ambient temperature measured by the external sensor (°C),aerosol sample conditioner tube jacket temperature (°C),OPC LED temperature (°C),internal box temperature (°C),relative humidity of the measurement (%),span deviation,mass concentration of particles derived from Lorenz-Mie calculation of OPC scattering (μg/m³),mass concentration of particles derived from Lorenz-Mie calculation of OPC scattering (μg/m³),mass concentration of particles derived from Lorenz-Mie calculation of OPC scattering (μg/m³)
DateTimeUTC,F1_M11,P_M11,Q1_M11,Q2_M11,T1_M11,T2_M11,T3_M11,T4_M11,T5_M11,U1_M11,ZSPAN_M11,X0_M11,X2_M11,X1_M11
2023-09-23 00:00:00,SystemResetWarning,0825.9,5.00,000.00,028.2,027.3,000.0,036.4,030.0,13.7,0000.0,0013.27,0004.04,0003.15
2023-09-23 00:01:00,SystemResetWarning,0825.9,5.00,000.00,028.2,026.9,000.0,036.4,029.9,13.4,0000.0,0013.66,0004.08,0003.15
2023-09-23 00:02:00,SystemResetWarning,0825.9,5.00,000.00,028.1,025.1,000.0,036.3,029.5,13.3,0000.0,0013.68,0004.05,0003.15
2023-09-23 00:03:00,SystemResetWarning,0825.9,5.00,000.00,028.0,024.0,000.0,036.3,029.3,13.3,0000.0,0013.07,0004.04,0003.15
2023-09-23 00:04:00,SystemResetWarning,0825.8,5.01,000.00,027.9,024.2,000.0,036.2,029.3,13.4,0000.0,0013.03,0004.04,0003.16
2023-09-23 00:05:00,SystemResetWarning,0825.9,5.02,000.00,027.9,024.6,000.0,036.2,029.3,13.3,0000.0,0012.89,0004.05,0003.16
2023-09-23 00:06:00,SystemResetWarning,0825.9,4.99,000.00,027.8,025.0,000.0,036.2,029.3,13.4,0000.0,0012.75,0004.05,0003.16
2023-09-23 00:07:00,SystemResetWarning,0825.9,5.00,000.00,027.9,025.4,000.0,036.2,029.4,13.2,0000.0,0012.64,0004.05,0003.16
2023-09-23 00:08:00,SystemResetWarning,0825.9,5.00,000.00,027.9,025.8,000.0,036.2,029.5,13.3,0000.0,0012.11,0004.06,0003.15
2023-09-23 00:09:00,SystemResetWarning,0826.0,5.01,000.00,027.9,026.2,000.0,036.2,029.6,13.8,0000.0,0012.30,0004.11,0003.15
2023-09-23 00:10:00,SystemResetWarning,0825.9,4.99,000.00,028.0,026.5,000.0,036.3,029.7,13.8,0000.0,0013.12,0004.12,0003.16
2023-09-23 00:11:00,SystemResetWarning,0826.0,5.00,000.00,028.0,026.8,000.0,036.3,029.8,13.6,0000.0,0013.37,0004.16,0003.15
2023-09-23 00:12:00,SystemResetWarning,0825.9,5.00,000.00,028.1,027.0,000.0,036.3,029.9,13.3,0000.0,0013.33,0004.13,0003.15
2023-09-23 00:13:00,SystemResetWarning,0825.9,5.00,000.00,028.2,027.2,000.0,036.3,030.0,13.1,0000.0,0013.29,0004.11,0003.15
2023-09-23 00:14:00,SystemResetWarning,0825.9,4.99,000.00,028.2,027.2,000.0,036.4,030.0,13.3,0000.0,0013.48,0004.09,0003.14
2023-09-23 00:15:00,SystemResetWarning,0825.9,5.00,000.00,028.2,025.8,000.0,036.4,029.6,13.6,0000.0,0012.54,0004.08,0003.14
2023-09-23 00:16:00,SystemResetWarning,0825.9,5.00,000.00,028.0,024.3,000.0,036.3,029.3,13.7,0000.0,0012.93,0004.08,0003.14
2023-09-23 00:17:00,SystemResetWarning,0825.9,5.01,000.00,027.9,024.2,000.0,036.2,029.3,13.8,0000.0,0013.43,0004.09,0003.14
2023-09-23 00:18:00,SystemResetWarning,0825.9,5.01,000.00,027.9,024.5,000.0,036.2,029.2,14.0,0000.0,0013.93,0004.08,0003.14
2023-09-23 00:19:00,SystemResetWarning,0825.9,5.00,000.00,027.8,024.9,000.0,036.2,029.3,13.8,0000.0,0013.96,0004.05,0003.14
2023-09-23 00:20:00,SystemResetWarning,0825.9,5.00,000.00,027.8,025.3,000.0,036.2,029.4,13.4,0000.0,0014.71,0004.03,0003.15
2023-09-23 00:21:00,SystemResetWarning,0825.9,5.00,000.00,027.9,025.7,000.0,036.2,029.5,13.5,0000.0,0014.23,0004.00,0003.14
2023-09-23 00:22:00,SystemResetWarning,0825.9,4.99,000.00,027.9,026.1,000.0,036.2,029.6,13.7,0000.0,0014.23,0004.00,0003.13
2023-09-23 00:23:00,SystemResetWarning,0825.9,5.00,000.00,028.0,026.4,000.0,036.3,029.7,13.6,0000.0,0013.91,0003.99,0003.12
2023-09-23 00:24:00,SystemResetWarning,0825.9,5.00,000.00,028.0,026.7,000.0,036.3,029.8,13.4,0000.0,0013.43,0003.96,0003.11
2023-09-23 00:25:00,SystemResetWarning,0825.9,5.00,000.00,028.1,026.9,000.0,036.3,029.8,13.3,0000.0,0013.24,0003.98,0003.10
2023-09-23 00:26:00,SystemResetWarning,0825.9,5.00,000.00,028.1,027.1,000.0,036.3,029.9,13.2,0000.0,0014.13,0003.97,0003.09
2023-09-23 00:27:00,SystemResetWarning,0825.9,4.99,000.00,028.2,026.9,000.0,036.3,029.9,13.1,0000.0,0013.39,0003.94,0003.08
2023-09-23 00:28:00,SystemResetWarning,0825.9,5.00,000.00,028.1,025.2,000.0,036.3,029.5,13.2,0000.0,0013.13,0003.91,0003.07
2023-09-23 00:29:00,SystemResetWarning,0825.9,5.01,000.00,028.0,023.9,000.0,036.2,029.3,13.2,0000.0,0012.48,0003.88,0003.05
2023-09-23 00:30:00,SystemResetWarning,0825.8,5.01,000.00,027.9,024.0,000.0,036.2,029.2,13.4,0000.0,0012.45,0003.93,0003.04
2023-09-23 00:31:00,SystemResetWarning,0825.9,4.99,000.00,027.8,024.4,000.0,036.2,029.2,13.4,0000.0,0011.60,0003.94,0003.05
2023-09-23 00:32:00,SystemResetWarning,0825.9,5.00,000.00,027.8,024.8,000.0,036.2,029.3,13.4,0000.0,0011.01,0003.98,0003.07
2023-09-23 00:33:00,SystemResetWarning,0825.9,5.00,000.00,027.8,025.3,000.0,036.2,029.3,13.5,0000.0,0010.63,0003.99,0003.08
2023-09-23 00:34:00,SystemResetWarning,0826.0,4.99,000.00,027.8,025.7,000.0,036.2,029.4,13.4,0000.0,0011.09,0004.01,0003.09
2023-09-23 00:35:00,SystemResetWarning,0825.9,4.99,000.00,027.9,026.0,000.0,036.2,029.5,13.3,0000.0,0012.65,0004.10,0003.10
2023-09-23 00:36:00,SystemResetWarning,0825.8,5.01,000.00,027.9,026.3,000.0,036.2,029.6,13.4,0000.0,0012.98,0004.17,0003.11
2023-09-23 00:37:00,SystemResetWarning,0825.9,5.00,000.00,028.0,026.6,000.0,036.2,029.7,13.5,0000.0,0012.34,0004.18,0003.11
2023-09-23 00:38:00,SystemResetWarning,0825.9,5.00,000.00,028.0,026.8,000.0,036.3,029.8,13.3,0000.0,0012.64,0004.25,0003.12
2023-09-23 00:39:00,SystemResetWarning,0825.9,5.01,000.00,028.1,027.0,000.0,036.3,029.9,13.3,0000.0,0012.61,0004.30,0003.13
2023-09-23 00:40:00,SystemResetWarning,0825.9,4.99,000.00,028.1,027.2,000.0,036.3,029.9,13.0,0000.0,0012.74,0004.33,0003.14
2023-09-23 00:41:00,SystemResetWarning,0825.9,4.99,000.00,028.2,027.3,000.0,036.3,030.0,12.9,0000.0,0012.89,0004.31,0003.14
2023-09-23 00:42:00,SystemResetWarning,0825.9,5.00,000.00,028.2,026.0,000.0,036.3,029.7,12.9,0000.0,0012.90,0004.28,0003.13
2023-09-23 00:43:00,SystemResetWarning,0825.9,5.00,000.00,028.0,024.3,000.0,036.3,029.3,13.0,0000.0,0013.07,0004.25,0003.12
2023-09-23 00:44:00,SystemResetWarning,0825.9,5.02,000.00,027.9,024.0,000.0,036.2,029.3,13.0,0000.0,0013.08,0004.24,0003.11
2023-09-23 00:45:00,SystemResetWarning,0825.9,5.00,000.00,027.8,024.2,000.0,036.2,029.2,13.1,0000.0,0013.29,0004.24,0003.11
2023-09-23 00:46:00,SystemResetWarning,0825.9,5.00,000.00,027.8,024.6,000.0,036.2,029.2,13.2,0000.0,0011.97,0004.17,0003.10
2023-09-23 00:47:00,SystemResetWarning,0826.0,5.00,000.00,027.8,025.1,000.0,036.2,029.3,13.2,0000.0,0011.46,0004.09,0003.10
2023-09-23 00:48:00,SystemResetWarning,0825.9,5.00,000.00,027.8,025.5,000.0,036.2,029.4,13.2,0000.0,0011.50,0004.08,0003.11
2023-09-23 00:49:00,SystemResetWarning,0825.9,5.00,000.00,027.8,025.9,000.0,036.2,029.5,13.2,0000.0,0010.85,0004.00,0003.10
2023-09-23 00:50:00,SystemResetWarning,0825.8,5.00,000.00,027.9,026.2,000.0,036.2,029.6,13.1,0000.0,0010.68,0003.95,0003.07
2023-09-23 00:51:00,SystemResetWarning,0825.9,5.00,000.00,027.9,026.5,000.0,036.2,029.6,13.1,0000.0,0011.31,0003.97,0003.08
2023-09-23 00:52:00,SystemResetWarning,0825.9,4.99,000.00,028.0,026.7,000.0,036.2,029.7,13.4,0000.0,0011.54,0004.02,0003.09
2023-09-23 00:53:00,SystemResetWarning,0825.9,4.99,000.00,028.0,026.9,000.0,036.2,029.8,13.9,0000.0,0011.80,0004.07,0003.10
2023-09-23 00:54:00,SystemResetWarning,0825.9,5.00,000.00,028.1,027.1,000.0,036.3,029.9,14.0,0000.0,0012.33,0004.15,0003.11
2023-09-23 00:55:00,SystemResetWarning,0826.0,5.01,000.00,028.2,027.2,000.0,036.3,029.9,13.9,0000.0,0012.59,0004.15,0003.11
2023-09-23 00:56:00,SystemResetWarning,0826.0,5.01,000.00,028.2,027.3,000.0,036.3,030.0,14.2,0000.0,0012.50,0004.12,0003.11
2023-09-23 00:57:00,SystemResetWarning,0826.0,4.98,000.00,028.2,025.9,000.0,036.3,029.6,14.2,0000.0,0012.70,0004.16,0003.11
2023-09-23 00:58:00,SystemResetWarning,0826.0,5.01,000.00,028.0,024.1,000.0,036.3,029.3,14.3,0000.0,0012.87,0004.23,0003.11
2023-09-23 00:59:00,SystemResetWarning,0826.0,5.00,000.00,027.9,023.8,000.0,036.2,029.2,14.5,0000.0,0014.09,0004.25,0003.10
